| time (UTC) | temp F | wind direction | speed knots | gust knots | rain 1hr in | rain 24hr in | rain mn in | humidity % | barometer mb |
| 20260903165424 | 94 | 233 | 2.6 | 5.2 | 0.00 | 0.00 | 0.00 | 56 | 1013.1 |
| 20260903164918 | 93 | 188 | 2.6 | 6.1 | 0.00 | 0.00 | 0.00 | 56 | 1013.0 |
| 20260903164414 | 93 | 264 | 1.7 | 5.2 | 0.00 | 0.00 | 0.00 | 58 | 1013.0 |
| 20260903163913 | 93 | 220 | 4.3 | 6.1 | 0.00 | 0.00 | 0.00 | 57 | 1013.0 |
| 20260903163409 | 93 | 232 | 4.3 | 7.0 | 0.00 | 0.00 | 0.00 | 59 | 1012.9 |
| 20260903162905 | 92 | 291 | 2.6 | 6.1 | 0.00 | 0.00 | 0.00 | 59 | 1012.9 |
| 20260903162402 | 92 | 228 | 3.5 | 5.2 | 0.00 | 0.00 | 0.00 | 59 | 1013.0 |
| 20260903161857 | 91 | 231 | 4.3 | 6.1 | 0.00 | 0.00 | 0.00 | 60 | 1013.0 |
| 20260903161352 | 92 | 233 | 1.7 | 5.2 | 0.00 | 0.00 | 0.00 | 62 | 1013.3 |
| 20260903160848 | 92 | 216 | 5.2 | 6.1 | 0.00 | 0.00 | 0.00 | 60 | 1013.3 |
| 20260903160346 | 92 | 246 | 1.7 | 2.6 | 0.00 | 0.00 | 0.00 | 57 | 1013.1 |
| 20260903155845 | 90 | 227 | 1.7 | 5.2 | 0.00 | 0.00 | 0.00 | 62 | 1013.3 |
| 20260903155341 | 90 | 291 | 1.7 | 5.2 | 0.00 | 0.00 | 0.00 | 61 | 1013.4 |
| 20260903154837 | 91 | 241 | 5.2 | 6.1 | 0.00 | 0.00 | 0.00 | 61 | 1013.2 |
| 20260903154333 | 91 | 262 | 2.6 | 2.6 | 0.00 | 0.00 | 0.00 | 60 | 1013.3 |
| 20260903153833 | 90 | 271 | 0.9 | 4.3 | 0.00 | 0.00 | 0.00 | 62 | 1013.2 |
| 20260903153329 | 89 | 254 | 2.6 | 7.0 | 0.00 | 0.00 | 0.00 | 63 | 1013.2 |
| 20260903152825 | 89 | 256 | 2.6 | 5.2 | 0.00 | 0.00 | 0.00 | 65 | 1013.2 |
| 20260903152320 | 90 | 267 | 1.7 | 4.3 | 0.00 | 0.00 | 0.00 | 64 | 1013.2 |
| 20260903151815 | 89 | 262 | 1.7 | 4.3 | 0.00 | 0.00 | 0.00 | 65 | 1013.2 |
| 20260903151311 | 88 | 285 | 1.7 | 4.3 | 0.00 | 0.00 | 0.00 | 66 | 1013.3 |
| 20260903150811 | 89 | 270 | 2.6 | 4.3 | 0.00 | 0.00 | 0.00 | 68 | 1013.4 |
| 20260903150311 | 88 | 263 | 0.0 | 2.6 | 0.00 | 0.00 | 0.00 | 67 | 1013.2 |
| 20260903145806 | 88 | 246 | 2.6 | 4.3 | 0.00 | 0.00 | 0.00 | 68 | 1013.2 |
| 20260903145301 | 86 | 220 | 2.6 | 2.6 | 0.00 | 0.00 | 0.00 | 70 | 1013.4 |
| 20260903144800 | 86 | 243 | 2.6 | 4.3 | 0.00 | 0.00 | 0.00 | 70 | 1013.3 |
| 20260903144256 | 86 | 223 | 0.9 | 4.3 | 0.00 | 0.00 | 0.00 | 70 | 1013.3 |
| 20260903143752 | 85 | 258 | 1.7 | 2.6 | 0.00 | 0.00 | 0.00 | 71 | 1013.3 |
| 20260903143248 | 85 | 247 | 1.7 | 2.6 | 0.00 | 0.00 | 0.00 | 72 | 1013.4 |
| 20260903142743 | 84 | 274 | 0.9 | 2.6 | 0.00 | 0.00 | 0.00 | 74 | 1013.4 |
| 20260903142239 | 83 | 221 | 0.9 | 4.3 | 0.00 | 0.00 | 0.00 | 75 | 1013.4 |
| 20260903141735 | 83 | 196 | 3.5 | 4.3 | 0.00 | 0.00 | 0.00 | 73 | 1013.3 |
| 20260903141230 | 83 | 219 | 2.6 | 4.3 | 0.00 | 0.00 | 0.00 | 73 | 1013.3 |
| 20260903140725 | 83 | 246 | 1.7 | 5.2 | 0.00 | 0.00 | 0.00 | 75 | 1013.1 |
| 20260903140220 | 82 | 265 | 0.9 | 4.3 | 0.00 | 0.00 | 0.00 | 76 | 1013.4 |
| 20260903135716 | 82 | 273 | 2.6 | 2.6 | 0.00 | 0.00 | 0.00 | 75 | 1013.6 |
| 20260903135211 | 81 | 302 | 0.9 | 2.6 | 0.00 | 0.00 | 0.00 | 78 | 1013.5 |
| 20260903134710 | 81 | 283 | 1.7 | 2.6 | 0.00 | 0.00 | 0.00 | 77 | 1013.3 |
| 20260903134206 | 81 | 234 | 2.6 | 4.3 | 0.00 | 0.00 | 0.00 | 78 | 1013.4 |
| 20260903133704 | 80 | 237 | 2.6 | 2.6 | 0.00 | 0.00 | 0.00 | 78 | 1013.3 |
| 20260903133200 | 80 | 189 | 2.6 | 4.3 | 0.00 | 0.00 | 0.00 | 78 | 1013.4 |
| 20260903132700 | 81 | 273 | 0.9 | 0.9 | 0.00 | 0.00 | 0.00 | 77 | 1013.4 |
| 20260903132200 | 80 | 310 | 0.0 | 0.0 | 0.00 | 0.00 | 0.00 | 79 | 1013.4 |
| 20260903131655 | 80 | 316 | 0.0 | 0.9 | 0.00 | 0.00 | 0.00 | 81 | 1013.5 |
| 20260903131149 | 79 | 296 | 0.0 | 0.9 | 0.00 | 0.00 | 0.00 | 81 | 1013.6 |
| 20260903130644 | 80 | 306 | 0.0 | 0.0 | 0.00 | 0.00 | 0.00 | 80 | 1013.5 |
| 20260903130143 | 78 | 306 | 0.0 | 0.0 | 0.00 | 0.00 | 0.00 | 81 | 1013.2 |
| 20260903125642 | 78 | 307 | 0.0 | 0.0 | 0.00 | 0.00 | 0.00 | 83 | 1013.3 |
| 20260903125137 | 77 | 308 | 0.0 | 0.9 | 0.00 | 0.00 | 0.00 | 85 | 1013.2 |
| 20260903124638 | 76 | 308 | 0.9 | 0.9 | 0.00 | 0.00 | 0.00 | 86 | 1013.2 |
| 20260903124137 | 76 | 279 | 0.0 | 0.0 | 0.00 | 0.00 | 0.00 | 86 | 1013.2 |
| 20260903123631 | 75 | 278 | 0.0 | 0.9 | 0.00 | 0.00 | 0.00 | 88 | 1013.3 |
| 20260903123130 | 75 | 344 | 1.7 | 2.6 | 0.00 | 0.00 | 0.00 | 88 | 1013.4 |
| 20260903122624 | 75 | 326 | 1.7 | 1.7 | 0.00 | 0.00 | 0.00 | 88 | 1013.0 |
| 20260903122119 | 75 | 306 | 0.0 | 1.7 | 0.00 | 0.00 | 0.00 | 88 | 1013.0 |
| 20260903121618 | 75 | 301 | 0.9 | 1.7 | 0.00 | 0.00 | 0.00 | 88 | 1013.0 |
| 20260903121113 | 75 | 279 | 0.0 | 0.9 | 0.00 | 0.00 | 0.00 | 87 | 1012.6 |
| 20260903120612 | 75 | 236 | 1.7 | 2.6 | 0.00 | 0.00 | 0.00 | 87 | 1012.5 |
| 20260903120107 | 75 | 245 | 1.7 | 2.6 | 0.00 | 0.00 | 0.00 | 87 | 1012.7 |
| 20260903115605 | 75 | 236 | 1.7 | 1.7 | 0.00 | 0.00 | 0.00 | 88 | 1012.6 |
| 20260903115100 | 75 | 237 | 1.7 | 2.6 | 0.00 | 0.00 | 0.00 | 87 | 1012.4 |
| 20260903114555 | 75 | 222 | 1.7 | 2.6 | 0.00 | 0.00 | 0.00 | 87 | 1012.5 |
| 20260903114046 | 75 | 232 | 1.7 | 2.6 | 0.00 | 0.00 | 0.00 | 87 | 1012.4 |
| 20260903113541 | 75 | 221 | 1.7 | 2.6 | 0.00 | 0.00 | 0.00 | 87 | 1012.4 |
| 20260903113037 | 75 | 212 | 2.6 | 2.6 | 0.00 | 0.00 | 0.00 | 86 | 1012.4 |
| 20260903112533 | 75 | 244 | 2.6 | 2.6 | 0.00 | 0.00 | 0.00 | 86 | 1012.5 |
| 20260903112028 | 75 | 211 | 2.6 | 4.3 | 0.00 | 0.00 | 0.00 | 86 | 1012.2 |
| 20260903111526 | 75 | 214 | 2.6 | 2.6 | 0.00 | 0.00 | 0.00 | 87 | 1012.2 |
| 20260903111023 | 75 | 209 | 1.7 | 2.6 | 0.00 | 0.00 | 0.00 | 87 | 1012.2 |
| 20260903110518 | 75 | 213 | 2.6 | 2.6 | 0.00 | 0.00 | 0.00 | 87 | 1012.1 |
| 20260903110013 | 75 | 213 | 2.6 | 2.6 | 0.00 | 0.00 | 0.00 | 86 | 1011.8 |
| 20260903105508 | 76 | 195 | 2.6 | 4.3 | 0.00 | 0.00 | 0.00 | 86 | 1012.0 |
| 20260903105007 | 76 | 207 | 1.7 | 4.3 | 0.00 | 0.00 | 0.00 | 85 | 1012.1 |
| 20260903104502 | 77 | 213 | 3.5 | 4.3 | 0.00 | 0.00 | 0.00 | 85 | 1012.0 |
| 20260903103958 | 77 | 230 | 3.5 | 5.2 | 0.00 | 0.00 | 0.00 | 84 | 1012.0 |
| 20260903103454 | 77 | 217 | 4.3 | 4.3 | 0.00 | 0.00 | 0.00 | 84 | 1011.9 |
| 20260903102949 | 77 | 223 | 2.6 | 2.6 | 0.00 | 0.00 | 0.00 | 84 | 1011.7 |
| 20260903102444 | 77 | 215 | 3.5 | 5.2 | 0.00 | 0.00 | 0.00 | 83 | 1011.8 |
| 20260903101942 | 77 | 222 | 2.6 | 4.3 | 0.00 | 0.00 | 0.00 | 84 | 1011.8 |
| 20260903101432 | 77 | 237 | 1.7 | 4.3 | 0.00 | 0.00 | 0.00 | 84 | 1011.8 |
| 20260903100928 | 77 | 206 | 2.6 | 4.3 | 0.00 | 0.00 | 0.00 | 83 | 1011.7 |
| 20260903100423 | 77 | 220 | 3.5 | 4.3 | 0.00 | 0.00 | 0.00 | 83 | 1011.7 |
| 20260903095920 | 77 | 165 | 2.6 | 5.2 | 0.00 | 0.00 | 0.00 | 83 | 1011.6 |
| 20260903095414 | 77 | 219 | 2.6 | 4.3 | 0.00 | 0.00 | 0.00 | 83 | 1011.8 |
| 20260903094909 | 77 | 211 | 2.6 | 5.2 | 0.00 | 0.00 | 0.00 | 83 | 1011.8 |
| 20260903094403 | 78 | 218 | 3.5 | 4.3 | 0.00 | 0.00 | 0.00 | 82 | 1011.8 |
| 20260903093900 | 78 | 219 | 3.5 | 5.2 | 0.00 | 0.00 | 0.00 | 82 | 1011.9 |
| 20260903093354 | 78 | 210 | 3.5 | 5.2 | 0.00 | 0.00 | 0.00 | 81 | 1011.8 |
| 20260903092850 | 78 | 244 | 2.6 | 4.3 | 0.00 | 0.00 | 0.00 | 81 | 1011.8 |
| 20260903092349 | 78 | 184 | 2.6 | 5.2 | 0.00 | 0.00 | 0.00 | 81 | 1011.7 |
| 20260903091848 | 78 | 212 | 2.6 | 4.3 | 0.00 | 0.00 | 0.00 | 81 | 1011.6 |
| 20260903091348 | 78 | 221 | 4.3 | 6.1 | 0.00 | 0.00 | 0.00 | 80 | 1011.6 |
| 20260903090843 | 79 | 215 | 2.6 | 4.3 | 0.00 | 0.00 | 0.00 | 80 | 1011.8 |
| 20260903090338 | 79 | 217 | 2.6 | 5.2 | 0.00 | 0.00 | 0.00 | 80 | 1011.6 |
| 20260903085836 | 79 | 188 | 2.6 | 5.2 | 0.00 | 0.00 | 0.00 | 79 | 1011.7 |
| 20260903085335 | 79 | 198 | 3.5 | 5.2 | 0.00 | 0.00 | 0.00 | 79 | 1011.8 |
| 20260903084834 | 79 | 228 | 3.5 | 5.2 | 0.00 | 0.00 | 0.00 | 79 | 1011.6 |
| 20260903084333 | 79 | 200 | 3.5 | 5.2 | 0.00 | 0.00 | 0.00 | 79 | 1011.6 |
| 20260903083829 | 80 | 200 | 3.5 | 4.3 | 0.00 | 0.00 | 0.00 | 79 | 1011.6 |
| 20260903083325 | 80 | 216 | 3.5 | 5.2 | 0.00 | 0.00 | 0.00 | 78 | 1011.8 |
| 20260903082823 | 80 | 210 | 2.6 | 5.2 | 0.00 | 0.00 | 0.00 | 78 | 1011.7 |
| 20260903082319 | 80 | 190 | 3.5 | 5.2 | 0.00 | 0.00 | 0.00 | 78 | 1011.7 |
| 20260903081814 | 80 | 198 | 4.3 | 4.3 | 0.00 | 0.00 | 0.00 | 78 | 1011.6 |
| 20260903081309 | 80 | 215 | 3.5 | 6.1 | 0.00 | 0.00 | 0.00 | 78 | 1011.7 |
| 20260903080806 | 80 | 188 | 2.6 | 5.2 | 0.00 | 0.00 | 0.00 | 78 | 1011.7 |
| 20260903080304 | 80 | 213 | 2.6 | 5.2 | 0.00 | 0.00 | 0.00 | 77 | 1011.6 |
| 20260903075802 | 80 | 220 | 2.6 | 4.3 | 0.00 | 0.00 | 0.00 | 77 | 1011.7 |
| 20260903075257 | 80 | 196 | 4.3 | 6.1 | 0.00 | 0.00 | 0.00 | 77 | 1011.8 |
| 20260903074756 | 81 | 218 | 4.3 | 7.0 | 0.00 | 0.00 | 0.00 | 76 | 1011.8 |
| 20260903074252 | 81 | 218 | 3.5 | 6.1 | 0.00 | 0.00 | 0.00 | 77 | 1011.9 |
| 20260903073742 | 81 | 208 | 4.3 | 7.0 | 0.00 | 0.00 | 0.00 | 76 | 1011.7 |
| 20260903073237 | 81 | 210 | 5.2 | 6.1 | 0.00 | 0.00 | 0.00 | 76 | 1011.9 |
| 20260903072733 | 81 | 247 | 3.5 | 5.2 | 0.00 | 0.00 | 0.00 | 76 | 1011.9 |
| 20260903072229 | 81 | 230 | 3.5 | 7.0 | 0.00 | 0.00 | 0.00 | 76 | 1011.8 |
| 20260903071725 | 81 | 209 | 2.6 | 5.2 | 0.00 | 0.00 | 0.00 | 76 | 1011.9 |
| 20260903071215 | 81 | 214 | 3.5 | 5.2 | 0.00 | 0.00 | 0.00 | 76 | 1011.8 |
| 20260903070715 | 81 | 185 | 2.6 | 8.7 | 0.00 | 0.00 | 0.00 | 76 | 1011.8 |
| 20260903070210 | 81 | 210 | 4.3 | 6.1 | 0.00 | 0.00 | 0.00 | 76 | 1011.9 |
| 20260903065705 | 82 | 224 | 5.2 | 7.8 | 0.00 | 0.00 | 0.00 | 75 | 1011.9 |
| 20260903065159 | 81 | 201 | 5.2 | 7.8 | 0.00 | 0.00 | 0.00 | 76 | 1011.7 |
| 20260903064658 | 81 | 205 | 4.3 | 7.0 | 0.00 | 0.00 | 0.00 | 76 | 1011.8 |
| 20260903064153 | 81 | 174 | 4.3 | 6.1 | 0.00 | 0.00 | 0.00 | 76 | 1012.1 |
| 20260903063643 | 81 | 205 | 5.2 | 6.1 | 0.00 | 0.00 | 0.00 | 76 | 1012.0 |
| 20260903063138 | 81 | 209 | 3.5 | 6.1 | 0.00 | 0.00 | 0.00 | 76 | 1012.0 |
| 20260903062634 | 81 | 191 | 4.3 | 5.2 | 0.00 | 0.00 | 0.00 | 76 | 1012.0 |
| 20260903062129 | 81 | 213 | 3.5 | 5.2 | 0.00 | 0.00 | 0.00 | 76 | 1011.9 |
| 20260903061624 | 81 | 237 | 3.5 | 6.1 | 0.00 | 0.00 | 0.00 | 76 | 1012.0 |
| 20260903061123 | 80 | 213 | 3.5 | 4.3 | 0.00 | 0.00 | 0.00 | 77 | 1012.0 |
| 20260903060618 | 81 | 164 | 3.5 | 5.2 | 0.00 | 0.00 | 0.00 | 77 | 1012.1 |
| 20260903060114 | 81 | 213 | 4.3 | 5.2 | 0.00 | 0.00 | 0.00 | 77 | 1011.9 |
| 20260903055611 | 80 | 202 | 3.5 | 5.2 | 0.00 | 0.00 | 0.00 | 77 | 1011.9 |
| 20260903055109 | 80 | 188 | 3.5 | 5.2 | 0.00 | 0.00 | 0.00 | 78 | 1011.8 |
| 20260903054604 | 80 | 230 | 2.6 | 5.2 | 0.00 | 0.00 | 0.00 | 78 | 1012.1 |
| 20260903054101 | 80 | 204 | 2.6 | 4.3 | 0.00 | 0.00 | 0.00 | 79 | 1012.1 |
| 20260903053556 | 80 | 235 | 2.6 | 4.3 | 0.00 | 0.00 | 0.00 | 79 | 1012.0 |
| 20260903053052 | 80 | 191 | 2.6 | 4.3 | 0.00 | 0.00 | 0.00 | 79 | 1012.0 |
| 20260903052548 | 80 | 231 | 2.6 | 2.6 | 0.00 | 0.00 | 0.00 | 79 | 1012.2 |
| 20260903052043 | 80 | 257 | 1.7 | 2.6 | 0.00 | 0.00 | 0.00 | 79 | 1012.1 |
| 20260903051542 | 80 | 247 | 2.6 | 2.6 | 0.00 | 0.00 | 0.00 | 79 | 1012.3 |
| 20260903051038 | 80 | 209 | 1.7 | 2.6 | 0.00 | 0.00 | 0.00 | 79 | 1012.2 |
| 20260903050537 | 81 | 195 | 2.6 | 4.3 | 0.00 | 0.00 | 0.00 | 78 | 1012.1 |
| 20260903050033 | 81 | 212 | 3.5 | 4.3 | 0.00 | 0.00 | 0.00 | 78 | 1012.2 |
| 20260903045532 | 81 | 233 | 3.5 | 4.3 | 0.00 | 0.00 | 0.00 | 78 | 1012.1 |
| 20260903045029 | 81 | 175 | 2.6 | 5.2 | 0.00 | 0.00 | 0.00 | 77 | 1012.1 |
| 20260903044525 | 81 | 211 | 2.6 | 5.2 | 0.00 | 0.00 | 0.00 | 77 | 1012.1 |
| 20260903044020 | 81 | 211 | 2.6 | 4.3 | 0.00 | 0.00 | 0.00 | 77 | 1012.3 |
| 20260903043516 | 81 | 229 | 2.6 | 4.3 | 0.00 | 0.00 | 0.00 | 77 | 1012.1 |
| 20260903043015 | 81 | 211 | 3.5 | 5.2 | 0.00 | 0.00 | 0.00 | 77 | 1012.3 |
| 20260903042510 | 81 | 191 | 2.6 | 5.2 | 0.00 | 0.00 | 0.00 | 77 | 1012.1 |
| 20260903042006 | 81 | 206 | 3.5 | 5.2 | 0.00 | 0.00 | 0.00 | 77 | 1012.2 |
| 20260903041502 | 81 | 204 | 2.6 | 4.3 | 0.00 | 0.00 | 0.00 | 78 | 1012.3 |
| 20260903040957 | 81 | 213 | 2.6 | 4.3 | 0.00 | 0.00 | 0.00 | 77 | 1012.0 |
| 20260903040456 | 82 | 219 | 2.6 | 4.3 | 0.00 | 0.00 | 0.00 | 77 | 1012.1 |
| 20260903035953 | 82 | 217 | 2.6 | 5.2 | 0.00 | 0.00 | 0.00 | 77 | 1012.4 |
| 20260903035442 | 81 | 216 | 2.6 | 5.2 | 0.00 | 0.00 | 0.00 | 77 | 1012.0 |
| 20260903034937 | 81 | 224 | 3.5 | 4.3 | 0.00 | 0.00 | 0.00 | 77 | 1012.0 |
| 20260903034432 | 81 | 238 | 2.6 | 4.3 | 0.00 | 0.00 | 0.00 | 78 | 1012.3 |
| 20260903033927 | 81 | 220 | 2.6 | 2.6 | 0.00 | 0.00 | 0.00 | 77 | 1012.2 |
| 20260903033422 | 81 | 233 | 2.6 | 4.3 | 0.00 | 0.00 | 0.00 | 77 | 1012.2 |
| 20260903032917 | 81 | 211 | 2.6 | 4.3 | 0.00 | 0.00 | 0.00 | 78 | 1012.1 |
| 20260903032413 | 81 | 261 | 0.9 | 1.7 | 0.00 | 0.00 | 0.00 | 78 | 1012.3 |
| 20260903031913 | 82 | 229 | 0.9 | 2.6 | 0.00 | 0.00 | 0.00 | 77 | 1012.0 |
| 20260903031413 | 82 | 221 | 2.6 | 2.6 | 0.00 | 0.00 | 0.00 | 76 | 1012.2 |
| 20260903030903 | 82 | 187 | 2.6 | 2.6 | 0.00 | 0.00 | 0.00 | 75 | 1012.1 |
| 20260903030359 | 82 | 229 | 1.7 | 5.2 | 0.00 | 0.00 | 0.00 | 76 | 1012.0 |
| 20260903025855 | 82 | 242 | 1.7 | 1.7 | 0.00 | 0.00 | 0.00 | 76 | 1012.0 |
| 20260903025350 | 82 | 263 | 1.7 | 1.7 | 0.00 | 0.00 | 0.00 | 75 | 1012.2 |
| 20260903024849 | 82 | 232 | 1.7 | 2.6 | 0.00 | 0.00 | 0.00 | 75 | 1012.3 |
| 20260903024343 | 83 | 212 | 1.7 | 2.6 | 0.00 | 0.00 | 0.00 | 75 | 1012.0 |
| 20260903023839 | 83 | 225 | 2.6 | 2.6 | 0.00 | 0.00 | 0.00 | 74 | 1012.0 |
| 20260903023334 | 83 | 211 | 2.6 | 4.3 | 0.00 | 0.00 | 0.00 | 74 | 1012.1 |
| 20260903022829 | 83 | 227 | 2.6 | 4.3 | 0.00 | 0.00 | 0.00 | 74 | 1011.9 |
| 20260903022329 | 84 | 204 | 2.6 | 4.3 | 0.00 | 0.00 | 0.00 | 74 | 1012.0 |
| 20260903021823 | 84 | 225 | 1.7 | 2.6 | 0.00 | 0.00 | 0.00 | 74 | 1012.0 |
| 20260903021319 | 84 | 206 | 2.6 | 2.6 | 0.00 | 0.00 | 0.00 | 73 | 1012.0 |
| 20260903020818 | 84 | 232 | 1.7 | 2.6 | 0.00 | 0.00 | 0.00 | 73 | 1012.1 |
| 20260903020313 | 84 | 173 | 2.6 | 4.3 | 0.00 | 0.00 | 0.00 | 73 | 1011.9 |
| 20260903015809 | 84 | 223 | 1.7 | 2.6 | 0.00 | 0.00 | 0.00 | 74 | 1012.1 |
| 20260903015309 | 84 | 210 | 2.6 | 2.6 | 0.00 | 0.00 | 0.00 | 73 | 1012.0 |
| 20260903014804 | 84 | 198 | 2.6 | 4.3 | 0.00 | 0.00 | 0.00 | 73 | 1011.8 |
| 20260903014304 | 84 | 218 | 2.6 | 4.3 | 0.00 | 0.00 | 0.00 | 74 | 1011.9 |
| 20260903013759 | 85 | 200 | 1.7 | 4.3 | 0.00 | 0.00 | 0.00 | 74 | 1011.8 |
| 20260903013258 | 85 | 210 | 2.6 | 2.6 | 0.00 | 0.00 | 0.00 | 73 | 1011.7 |
| 20260903012757 | 85 | 253 | 1.7 | 2.6 | 0.00 | 0.00 | 0.00 | 73 | 1011.6 |
| 20260903012251 | 86 | 181 | 2.6 | 4.3 | 0.00 | 0.00 | 0.00 | 73 | 1011.8 |
| 20260903011746 | 86 | 190 | 2.6 | 5.2 | 0.00 | 0.00 | 0.00 | 73 | 1011.6 |
| 20260903011245 | 86 | 191 | 3.5 | 5.2 | 0.00 | 0.00 | 0.00 | 73 | 1011.5 |
| 20260903010741 | 86 | 196 | 3.5 | 5.2 | 0.00 | 0.00 | 0.00 | 74 | 1011.6 |
| 20260903010236 | 86 | 165 | 3.5 | 4.3 | 0.00 | 0.00 | 0.00 | 73 | 1011.7 |
| 20260903005734 | 86 | 196 | 3.5 | 4.3 | 0.00 | 0.00 | 0.00 | 73 | 1011.5 |
| 20260903005229 | 87 | 189 | 1.7 | 2.6 | 0.00 | 0.00 | 0.00 | 73 | 1011.4 |
| 20260903004725 | 87 | 176 | 2.6 | 6.1 | 0.00 | 0.00 | 0.00 | 72 | 1011.7 |
| 20260903004221 | 87 | 178 | 1.7 | 2.6 | 0.00 | 0.00 | 0.00 | 74 | 1011.7 |
| 20260903003715 | 87 | 236 | 1.7 | 1.7 | 0.00 | 0.00 | 0.00 | 73 | 1011.4 |
| 20260903003211 | 88 | 185 | 1.7 | 2.6 | 0.00 | 0.00 | 0.00 | 72 | 1011.6 |
| 20260903002705 | 88 | 177 | 2.6 | 4.3 | 0.00 | 0.00 | 0.00 | 70 | 1011.5 |
| 20260903002159 | 89 | 214 | 2.6 | 4.3 | 0.00 | 0.00 | 0.00 | 70 | 1011.5 |
| 20260903001655 | 89 | 205 | 1.7 | 4.3 | 0.00 | 0.00 | 0.00 | 70 | 1011.5 |
| 20260903001148 | 89 | 203 | 1.7 | 4.3 | 0.00 | 0.00 | 0.00 | 70 | 1011.5 |
| 20260903000644 | 90 | 191 | 2.6 | 2.6 | 0.00 | 0.00 | 0.00 | 69 | 1011.4 |
| 20260903000138 | 90 | 198 | 2.6 | 5.2 | 0.00 | 0.00 | 0.00 | 68 | 1011.4 |
| 20260902235636 | 90 | 201 | 2.6 | 4.3 | 0.00 | 0.00 | 0.00 | 67 | 1011.4 |
| 20260902235126 | 91 | 191 | 2.6 | 2.6 | 0.00 | 0.00 | 0.00 | 66 | 1011.6 |
| 20260902234620 | 91 | 190 | 1.7 | 2.6 | 0.00 | 0.00 | 0.00 | 65 | 1011.7 |
| 20260902234118 | 92 | 189 | 2.6 | 4.3 | 0.00 | 0.00 | 0.00 | 63 | 1011.5 |
| 20260902233614 | 92 | 177 | 2.6 | 2.6 | 0.00 | 0.00 | 0.00 | 64 | 1011.8 |
| 20260902233108 | 93 | 204 | 2.6 | 4.3 | 0.00 | 0.00 | 0.00 | 64 | 1011.7 |
| 20260902232607 | 93 | 199 | 2.6 | 4.3 | 0.00 | 0.00 | 0.00 | 62 | 1011.7 |
| 20260902232101 | 93 | 197 | 2.6 | 4.3 | 0.00 | 0.00 | 0.00 | 63 | 1011.8 |
| 20260902231556 | 93 | 183 | 2.6 | 4.3 | 0.00 | 0.00 | 0.00 | 63 | 1011.6 |
| 20260902231050 | 94 | 256 | 0.9 | 1.7 | 0.00 | 0.00 | 0.00 | 62 | 1011.4 |
| 20260902230545 | 95 | 238 | 1.7 | 2.6 | 0.00 | 0.00 | 0.00 | 59 | 1011.7 |
| 20260902230044 | 95 | 250 | 0.9 | 2.6 | 0.00 | 0.00 | 0.00 | 60 | 1011.7 |
| 20260902225539 | 94 | 221 | 2.6 | 4.3 | 0.00 | 0.00 | 0.00 | 58 | 1011.6 |
| 20260902225039 | 95 | 184 | 3.5 | 5.2 | 0.00 | 0.00 | 0.00 | 57 | 1011.7 |
| 20260902224538 | 95 | 209 | 2.6 | 5.2 | 0.00 | 0.00 | 0.00 | 58 | 1011.7 |
| 20260902224034 | 95 | 219 | 3.5 | 4.3 | 0.00 | 0.00 | 0.00 | 57 | 1011.6 |
| 20260902223530 | 95 | 216 | 2.6 | 5.2 | 0.00 | 0.00 | 0.00 | 57 | 1011.7 |
| 20260902223029 | 95 | 210 | 3.5 | 6.1 | 0.00 | 0.00 | 0.00 | 56 | 1011.7 |
| 20260902222528 | 95 | 175 | 5.2 | 7.0 | 0.00 | 0.00 | 0.00 | 55 | 1011.7 |
| 20260902222026 | 96 | 232 | 4.3 | 7.0 | 0.00 | 0.00 | 0.00 | 54 | 1011.9 |
| 20260902221521 | 95 | 268 | 1.7 | 5.2 | 0.00 | 0.00 | 0.00 | 56 | 1012.0 |
| 20260902221016 | 95 | 225 | 4.3 | 6.1 | 0.00 | 0.00 | 0.00 | 55 | 1011.6 |
| 20260902220511 | 95 | 211 | 3.5 | 6.1 | 0.00 | 0.00 | 0.00 | 54 | 1011.7 |
| 20260902220006 | 96 | 199 | 4.3 | 5.2 | 0.00 | 0.00 | 0.00 | 55 | 1011.9 |
| 20260902215502 | 96 | 223 | 2.6 | 5.2 | 0.00 | 0.00 | 0.00 | 54 | 1011.8 |
| 20260902214958 | 96 | 189 | 4.3 | 7.0 | 0.00 | 0.00 | 0.00 | 52 | 1012.0 |
| 20260902214457 | 95 | 218 | 4.3 | 7.8 | 0.00 | 0.00 | 0.00 | 53 | 1011.8 |
| 20260902213955 | 95 | 219 | 4.3 | 7.0 | 0.00 | 0.00 | 0.00 | 54 | 1012.0 |
| 20260902213452 | 96 | 195 | 2.6 | 7.0 | 0.00 | 0.00 | 0.00 | 54 | 1012.0 |
| 20260902212951 | 96 | 243 | 3.5 | 6.1 | 0.00 | 0.00 | 0.00 | 52 | 1011.9 |
| 20260902212447 | 96 | 237 | 7.0 | 11.3 | 0.00 | 0.00 | 0.00 | 51 | 1012.0 |
| 20260902211943 | 96 | 223 | 3.5 | 8.7 | 0.00 | 0.00 | 0.00 | 52 | 1012.0 |
| 20260902211439 | 96 | 219 | 7.8 | 13.9 | 0.00 | 0.00 | 0.00 | 51 | 1011.9 |
| 20260902210933 | 96 | 242 | 4.3 | 7.0 | 0.00 | 0.00 | 0.00 | 54 | 1012.1 |
| 20260902210428 | 96 | 265 | 3.5 | 7.0 | 0.00 | 0.00 | 0.00 | 53 | 1012.1 |
| 20260902205926 | 96 | 229 | 5.2 | 7.0 | 0.00 | 0.00 | 0.00 | 51 | 1012.0 |
| 20260902205416 | 96 | 241 | 4.3 | 7.0 | 0.00 | 0.00 | 0.00 | 54 | 1012.1 |
| 20260902204912 | 96 | 194 | 5.2 | 9.6 | 0.00 | 0.00 | 0.00 | 52 | 1011.9 |
| 20260902204411 | 96 | 225 | 6.1 | 7.0 | 0.00 | 0.00 | 0.00 | 54 | 1012.0 |
| 20260902203907 | 96 | 230 | 6.1 | 8.7 | 0.00 | 0.00 | 0.00 | 54 | 1012.1 |
| 20260902203402 | 96 | 206 | 4.3 | 7.8 | 0.00 | 0.00 | 0.00 | 54 | 1012.1 |
| 20260902202856 | 96 | 149 | 6.1 | 9.6 | 0.00 | 0.00 | 0.00 | 54 | 1012.2 |
| 20260902202352 | 96 | 196 | 4.3 | 7.0 | 0.00 | 0.00 | 0.00 | 55 | 1012.2 |
| 20260902201849 | 96 | 206 | 4.3 | 6.1 | 0.00 | 0.00 | 0.00 | 55 | 1012.2 |
| 20260902201348 | 97 | 214 | 4.3 | 5.2 | 0.00 | 0.00 | 0.00 | 54 | 1012.5 |
| 20260902200843 | 97 | 212 | 6.1 | 7.0 | 0.00 | 0.00 | 0.00 | 53 | 1012.4 |
| 20260902200339 | 97 | 197 | 5.2 | 8.7 | 0.00 | 0.00 | 0.00 | 54 | 1012.7 |
| 20260902195834 | 96 | 205 | 4.3 | 7.8 | 0.00 | 0.00 | 0.00 | 54 | 1012.7 |
| 20260902195333 | 96 | 199 | 6.1 | 7.8 | 0.00 | 0.00 | 0.00 | 54 | 1012.5 |
| 20260902194828 | 95 | 194 | 5.2 | 9.6 | 0.00 | 0.00 | 0.00 | 54 | 1012.7 |
| 20260902194327 | 95 | 220 | 6.1 | 8.7 | 0.00 | 0.00 | 0.00 | 56 | 1012.6 |
| 20260902193823 | 96 | 200 | 7.0 | 11.3 | 0.00 | 0.00 | 0.00 | 55 | 1012.8 |
| 20260902193319 | 96 | 210 | 5.2 | 8.7 | 0.00 | 0.00 | 0.00 | 55 | 1012.8 |
| 20260902192818 | 95 | 218 | 6.1 | 9.6 | 0.00 | 0.00 | 0.00 | 54 | 1012.9 |
| 20260902192316 | 96 | 207 | 7.8 | 9.6 | 0.00 | 0.00 | 0.00 | 54 | 1012.8 |
| 20260902191816 | 95 | 230 | 5.2 | 8.7 | 0.00 | 0.00 | 0.00 | 54 | 1012.9 |
| 20260902191312 | 95 | 208 | 7.8 | 11.3 | 0.00 | 0.00 | 0.00 | 54 | 1012.8 |
| 20260902190807 | 95 | 234 | 3.5 | 7.8 | 0.00 | 0.00 | 0.00 | 56 | 1013.0 |
| 20260902190306 | 96 | 223 | 3.5 | 6.1 | 0.00 | 0.00 | 0.00 | 54 | 1013.1 |
| 20260902185803 | 95 | 228 | 4.3 | 11.3 | 0.00 | 0.00 | 0.00 | 55 | 1013.1 |
| 20260902185258 | 95 | 204 | 3.5 | 5.2 | 0.00 | 0.00 | 0.00 | 55 | 1013.2 |
| 20260902184754 | 94 | 209 | 4.3 | 7.8 | 0.00 | 0.00 | 0.00 | 58 | 1013.2 |
| 20260902184249 | 94 | 228 | 1.7 | 7.0 | 0.00 | 0.00 | 0.00 | 59 | 1013.1 |
| 20260902183744 | 94 | 212 | 6.1 | 7.8 | 0.00 | 0.00 | 0.00 | 59 | 1013.4 |
| 20260902183240 | 94 | 182 | 6.1 | 7.0 | 0.00 | 0.00 | 0.00 | 57 | 1013.6 |
| 20260902182736 | 93 | 294 | 3.5 | 6.1 | 0.00 | 0.00 | 0.00 | 59 | 1013.4 |
| 20260902182233 | 93 | 219 | 6.1 | 11.3 | 0.00 | 0.00 | 0.00 | 59 | 1013.5 |
| 20260902181729 | 93 | 239 | 5.2 | 9.6 | 0.00 | 0.00 | 0.00 | 58 | 1013.6 |
| 20260902181228 | 92 | 219 | 7.0 | 9.6 | 0.00 | 0.00 | 0.00 | 60 | 1013.7 |
| 20260902180723 | 92 | 229 | 3.5 | 6.1 | 0.00 | 0.00 | 0.00 | 59 | 1013.6 |
| 20260902180219 | 93 | 186 | 5.2 | 7.0 | 0.00 | 0.00 | 0.00 | 59 | 1013.5 |
| 20260902175713 | 92 | 257 | 3.5 | 8.7 | 0.00 | 0.00 | 0.00 | 60 | 1013.5 |
| 20260902175209 | 92 | 214 | 4.3 | 7.0 | 0.00 | 0.00 | 0.00 | 58 | 1013.5 |
| 20260902174705 | 91 | 238 | 4.3 | 8.7 | 0.00 | 0.00 | 0.00 | 59 | 1013.9 |
| 20260902174201 | 93 | 195 | 2.6 | 7.0 | 0.00 | 0.00 | 0.00 | 60 | 1013.9 |
| 20260902173656 | 92 | 207 | 2.6 | 5.2 | 0.00 | 0.00 | 0.00 | 58 | 1013.9 |
| 20260902173151 | 92 | 249 | 4.3 | 5.2 | 0.00 | 0.00 | 0.00 | 59 | 1013.9 |
| 20260902172646 | 91 | 212 | 3.5 | 7.8 | 0.00 | 0.00 | 0.00 | 62 | 1014.1 |
| 20260902172144 | 91 | 171 | 2.6 | 5.2 | 0.00 | 0.00 | 0.00 | 61 | 1013.9 |
| 20260902171640 | 90 | 167 | 6.1 | 11.3 | 0.00 | 0.00 | 0.00 | 61 | 1014.1 |
| 20260902171136 | 91 | 215 | 4.3 | 7.8 | 0.00 | 0.00 | 0.00 | 60 | 1014.2 |
| 20260902170631 | 90 | 230 | 7.0 | 9.6 | 0.00 | 0.00 | 0.00 | 60 | 1014.2 |
| 20260902170127 | 91 | 226 | 2.6 | 6.1 | 0.00 | 0.00 | 0.00 | 60 | 1014.2 |